Overview Statistics Trail Chart Weather Telemetry Raw packets
 

This is the latest recevied weather packets stored in our database for station/object DF1GD-10. If no packets are shown the sender has not sent any weather packets the latest 10 day(s).

<< 10 11 12 13 14 15 16 >>
Time Temp. Humidity Pressure Rain* Wind** Luminosity Snow
1788443903 24.44° C 26% 1020.4 hPa - - - -
1788443003 23.89° C 27% 1020.4 hPa - - - -
1788442103 23.89° C 27% 1020.6 hPa - - - -
1788441202 23.89° C 26% 1020.9 hPa - - - -
1788440302 23.89° C 26% 1021 hPa - - - -
1788439402 22.78° C 28% 1021 hPa - - - -
1788438502 22.22° C 29% 1020.8 hPa - - - -
1788437602 22.22° C 29% 1020.8 hPa - - - -
1788436702 22.22° C 30% 1020.9 hPa - - - -
1788435802 22.22° C 29% 1021 hPa - - - -
1788434901 22.78° C 29% 1021.4 hPa - - - -
1788434001 22.78° C 28% 1021.7 hPa - - - -
1788433101 23.33° C 27% 1021.7 hPa - - - -
1788432201 21.11° C 32% 1022.1 hPa - - - -
1788431301 21.11° C 32% 1022 hPa - - - -
1788430401 21.11° C 33% 1022.4 hPa - - - -
1788429501 21.11° C 33% 1022.4 hPa - - - -
1788428600 20.56° C 32% 1022.4 hPa - - - -
1788427700 19.44° C 37% 1022.4 hPa - - - -
1788426800 18.89° C 41% 1022.6 hPa - - - -
1788425900 18.33° C 42% 1022.3 hPa - - - -
1788425000 17.78° C 45% 1022.7 hPa - - - -
1788424100 17.22° C 46% 1022.7 hPa - - - -
1788423200 16.67° C 49% 1022.2 hPa - - - -
1788422299 16.11° C 51% 1022.2 hPa - - - -

* Rain since midnight (hover to see other rain measurements)
** Current wind speed in m/s (hover to see current wind gust speed)